Preview of NWS' New Version of Forecast
This preview is not operational and should not be used for support decisions.

Regional Weather Roundup (RWR)

Issued by National Weather Service (NWS)

                            
000
ASUS45 KCYS 171010
RWRWY 

WYOMING REGIONAL WEATHER ROUNDUP
NATIONAL WEATHER SERVICE CHEYENNE WY
300 AM MST SUN FEB 17 2019

NOTE:  "FAIR" INDICATES FEW OR NO CLOUDS BELOW 12,000 FEET
WITH NO SIGNIFICANT WEATHER AND/OR OBSTRUCTIONS TO VISIBILITY.

WYZ001-171100-
YELLOWSTONE NATIONAL PARK
  
CITY           SKY/WX    TMP DP  RH WIND       PRES   REMARKS
LK YELLOWSTONE   N/A      7   3  84 CALM      29.70S                  
W YELLOWSTONE  NOT AVBL                                               

$$
WYZ002>013-054>058-071-098>099-171100-
NORTHERN WYOMING
  
CITY           SKY/WX    TMP DP  RH WIND       PRES   REMARKS
JACKSON        FLURRIES   9   6  88 NE3       29.75R                  
CODY           FLURRIES   8   6  92 NE7       29.82R WCI  -3          
GREYBULL       CLOUDY    13   9  84 NW13      29.85R WCI  -2          
WORLAND        FAIR      11   8  88 N8        29.83R WCI  -1          
SHERIDAN       LGT SNOW   6   1  80 NW8       29.94S WCI  -7          
BUFFALO        CLOUDY     4   0  83 N14       29.83R FOG     WCI -14  
GILLETTE       LGT SNOW   3  -1  83 N10       29.87R FOG     WCI -12  
HULETT         LGT SNOW   1  -4  78 MISG      29.88                   
NEWCASTLE        N/A      3  -6  66 NW17G23   29.84  WCI -17          

$$
WYZ014>020-022>026-101>103-171100-
CENTRAL WYOMING
  
CITY           SKY/WX    TMP DP  RH WIND       PRES   REMARKS
BIG PINEY      FAIR     -11 -15  82 S5        29.75S WCI -23          
PINEDALE       FAIR     -13 -17  84 W6        29.75  WCI -27          
DUBOIS         CLOUDY     9   1  72 W12       29.69  WCI  -6          
LANDER         FAIR      15   0  51 SW6       29.73R WCI   6          
RIVERTON       FAIR      16   7  67 W8        29.73S WCI   5          
CASPER         CLOUDY    12  11  95 N12       29.77R WCI  -2          
DOUGLAS        CLOUDY    16  11  80 N9        29.78R WCI   4          

$$
WYZ021-027>030-104>119-171100-
SOUTHERN WYOMING
  
CITY           SKY/WX    TMP DP  RH WIND       PRES   REMARKS
EVANSTON       LGT SNOW  12   6  77 S6        29.74F WCI   3          
KEMMERER       PTSUNNY   12   9  85 SW6       29.74S WCI   3          
FORT BRIDGER   SUNNY     12   1  62 NE14      29.78  WCI  -3          
ROCK SPRINGS   FAIR      12   4  70 W17       29.75R WCI  -5          
DIXON          CLOUDY    11   6  79 CALM      29.80S                  
RAWLINS        FAIR      15   8  73 W15       29.73R WCI   0          
SARATOGA       CLOUDY    18  10  73 SW16      29.73S WCI   3          
LARAMIE        FAIR      12   2  64 CALM      29.66R                  
CHEYENNE       FAIR      19   6  57 W13       29.68R WCI   6          
TORRINGTON     CLOUDY    16  11  80 N13       29.77R WCI   2          
PINE BLUFFS    CLOUDY    18  18 100 NW7       29.74R WCI   8          

$$
  

000
ASUS45 KCYS 171010
RWRWY 

WYOMING REGIONAL WEATHER ROUNDUP
NATIONAL WEATHER SERVICE CHEYENNE WY
300 AM MST SUN FEB 17 2019

NOTE:  "FAIR" INDICATES FEW OR NO CLOUDS BELOW 12,000 FEET
WITH NO SIGNIFICANT WEATHER AND/OR OBSTRUCTIONS TO VISIBILITY.

WYZ001-171100-
...YELLOWSTONE NATIONAL PARK...
  
CITY           SKY/WX    TMP DP  RH WIND       PRES   REMARKS
LK YELLOWSTONE   N/A      7   3  84 CALM      29.70S                  
W YELLOWSTONE  NOT AVBL                                               

$$
WYZ002>013-054>058-071-098>099-171100-
...NORTHERN WYOMING...
  
CITY           SKY/WX    TMP DP  RH WIND       PRES   REMARKS
JACKSON        FLURRIES   9   6  88 NE3       29.75R                  
CODY           FLURRIES   8   6  92 NE7       29.82R WCI  -3          
GREYBULL       CLOUDY    13   9  84 NW13      29.85R WCI  -2          
WORLAND        CLEAR     11   8  88 N8        29.83R WCI  -1          
SHERIDAN       LGT SNOW   6   1  80 NW8       29.94S WCI  -7          
BUFFALO        CLOUDY     4   0  83 N14       29.83R FOG     WCI -14  
GILLETTE       LGT SNOW   3  -1  83 N10       29.87R FOG     WCI -12  
HULETT         LGT SNOW   1  -4  78 MISG      29.88R                  
NEWCASTLE        N/A      3  -6  66 NW17G23   29.84R WCI -17          

$$
WYZ014>020-022>026-101>103-171100-
...CENTRAL WYOMING...
  
CITY           SKY/WX    TMP DP  RH WIND       PRES   REMARKS
BIG PINEY      PTCLDY   -11 -15  82 S5        29.75S WCI -23          
PINEDALE       PTCLDY   -13 -17  84 W6        29.75S WCI -27          
DUBOIS         MOCLDY     7   1  78 W10       29.69S WCI  -8          
LANDER         PTCLDY    15   0  51 SW6       29.73R WCI   6          
RIVERTON       PTCLDY    16   7  67 W8        29.73S WCI   5          
CASPER         CLOUDY    12  11  95 N12       29.77R WCI  -2          
DOUGLAS        CLOUDY    16  11  80 N9        29.78R WCI   4          

$$
WYZ021-027>030-104>119-171100-
...SOUTHERN WYOMING...
  
CITY           SKY/WX    TMP DP  RH WIND       PRES   REMARKS
EVANSTON       LGT SNOW  12   6  77 S6        29.74F WCI   3          
KEMMERER       MOCLDY    12   9  85 SW6       29.74S WCI   3          
FORT BRIDGER   CLEAR     12   1  62 NE14      29.78R WCI  -3          
ROCK SPRINGS   PTCLDY    12   4  70 W17       29.75R WCI  -5          
DIXON          CLOUDY    11   6  79 CALM      29.80S                  
RAWLINS        MOCLDY    15   8  73 W15       29.73R WCI   0          
SARATOGA       CLOUDY    18  10  73 SW16      29.73S WCI   3          
LARAMIE        PTCLDY    12   2  64 CALM      29.66R                  
CHEYENNE       CLEAR     19   6  57 W13       29.68R WCI   6          
TORRINGTON     CLOUDY    16  11  80 N13       29.77R WCI   2          
PINE BLUFFS    CLOUDY    18  18 100 NW7       29.74R WCI   8          

$$